2023/10/25 00:00:00,24.3, 8.1
2023/10/25 00:10:00,24.3, 8.0
2023/10/25 00:20:00,24.2, 7.9
2023/10/25 00:30:00,24.2, 7.9
2023/10/25 00:40:00,24.2, 7.7
2023/10/25 00:50:00,24.2, 7.8
2023/10/25 01:00:00,24.1, 7.7
2023/10/25 01:10:00,24.2, 7.5
2023/10/25 01:20:00,24.1, 7.4
2023/10/25 01:30:00,24.0, 7.6
2023/10/25 01:40:00,23.9, 7.2
2023/10/25 01:50:00,24.1, 7.3
2023/10/25 02:00:00,24.1, 7.2
2023/10/25 02:10:00,24.1, 7.2
2023/10/25 02:20:00,24.1, 7.2
2023/10/25 02:30:00,24.1, 7.0
2023/10/25 02:40:00,23.9, 7.3
2023/10/25 02:50:00,24.1, 7.3
2023/10/25 03:00:00,24.0, 7.4
2023/10/25 03:10:00,24.1, 7.4
2023/10/25 03:20:00,24.1, 7.5
2023/10/25 03:30:00,24.1, 7.4
2023/10/25 03:40:00,23.9, 7.6
2023/10/25 03:50:00,24.1, 7.2
2023/10/25 04:00:00,24.1, 7.3
2023/10/25 04:10:00,23.9, 7.1
2023/10/25 04:20:00,24.1, 7.0
2023/10/25 04:30:00,24.1, 7.0
2023/10/25 04:40:00,24.1, 6.7
2023/10/25 04:50:00,24.1, 6.7
2023/10/25 05:00:00,24.1, 6.6
2023/10/25 05:10:00,24.0, 6.7
2023/10/25 05:20:00,24.1, 6.6
2023/10/25 05:30:00,24.1, 6.6
2023/10/25 05:40:00,24.0, 6.4
2023/10/25 05:50:00,24.0, 6.2
2023/10/25 06:00:00,24.0, 6.5
2023/10/25 06:10:00,24.0, 6.7
2023/10/25 06:20:00,24.0, 6.6
2023/10/25 06:30:00,24.0, 6.5
2023/10/25 06:40:00,23.7, 6.3
2023/10/25 06:50:00,24.0, 6.1
2023/10/25 07:00:00,24.2, 6.4
2023/10/25 07:10:00,24.1, 6.5
2023/10/25 07:20:00,24.0, 6.7
2023/10/25 07:30:00,24.2, 6.9
2023/10/25 07:40:00,24.1, 7.0
2023/10/25 07:50:00,24.3, 7.3
2023/10/25 08:00:00,24.2, 7.7
2023/10/25 08:10:00,24.3, 8.5
2023/10/25 08:20:00,24.2, 8.8
2023/10/25 08:30:00,24.2, 9.4
2023/10/25 08:40:00,24.3, 9.9
2023/10/25 08:50:00,24.4,10.9
2023/10/25 09:00:00,24.5,11.7
2023/10/25 09:10:00,24.7,15.1
2023/10/25 09:20:00,24.7,13.5
2023/10/25 09:30:00,24.9,13.7
2023/10/25 09:40:00,25.1,13.8
2023/10/25 09:50:00,25.0,14.2
2023/10/25 10:00:00,25.4,14.7
2023/10/25 10:10:00,25.5,15.3
2023/10/25 10:20:00,25.6,17.4
2023/10/25 10:30:00,25.3,16.2
2023/10/25 10:40:00,25.1,15.4
2023/10/25 10:50:00,25.0,15.0
2023/10/25 11:00:00,24.9,16.7
2023/10/25 11:10:00,25.0,21.9
2023/10/25 11:20:00,25.0,22.7
2023/10/25 11:30:00,25.0,17.8
2023/10/25 11:40:00,24.9,17.2
2023/10/25 11:50:00,24.8,16.9
2023/10/25 12:00:00,24.6,15.0
2023/10/25 12:10:00,24.1,14.4
2023/10/25 12:20:00,24.0,14.5
2023/10/25 12:30:00,24.3,16.1
2023/10/25 12:40:00,24.9,17.8
2023/10/25 12:50:00,26.4,18.1
2023/10/25 13:00:00,25.5,16.9
2023/10/25 13:10:00,24.9,17.3
2023/10/25 13:20:00,25.0,20.9
2023/10/25 13:30:00,25.1,16.1
2023/10/25 13:40:00,24.8,15.4
2023/10/25 13:50:00,24.8,15.0
2023/10/25 14:00:00,24.1,15.6
2023/10/25 14:10:00,24.1,15.6
2023/10/25 14:20:00,24.3,16.7
2023/10/25 14:30:00,25.0,15.0
2023/10/25 14:40:00,24.7,15.9
2023/10/25 14:50:00,24.6,15.3
2023/10/25 15:00:00,24.7,15.3
2023/10/25 15:10:00,24.9,16.0
2023/10/25 15:20:00,25.0,17.5
2023/10/25 15:30:00,25.1,16.4
2023/10/25 15:40:00,24.6,15.6
2023/10/25 15:50:00,23.6,15.0
2023/10/25 16:00:00,23.9,15.5
2023/10/25 16:10:00,23.9,15.2
2023/10/25 16:20:00,24.4,14.9
2023/10/25 16:30:00,25.3,14.9
2023/10/25 16:40:00,24.8,14.9
2023/10/25 16:50:00,25.6,15.1
2023/10/25 17:00:00,28.3,14.3
2023/10/25 17:10:00,25.6,13.7
2023/10/25 17:20:00,24.8,13.4
2023/10/25 17:30:00,24.7,12.6
2023/10/25 17:40:00,24.2,12.1
2023/10/25 17:50:00,24.3,11.7
2023/10/25 18:00:00,24.2,11.4
2023/10/25 18:10:00,24.1,11.2
2023/10/25 18:20:00,24.0,11.3
2023/10/25 18:30:00,23.9,10.9
2023/10/25 18:40:00,23.9,10.5
2023/10/25 18:50:00,23.8,10.6
2023/10/25 19:00:00,23.7,10.4
2023/10/25 19:10:00,23.7,10.0
2023/10/25 19:20:00,23.7, 9.9
2023/10/25 19:30:00,23.6, 9.8
2023/10/25 19:40:00,23.6, 9.6
2023/10/25 19:50:00,23.6, 9.6
2023/10/25 20:00:00,23.4, 9.3
2023/10/25 20:10:00,23.4, 9.2
2023/10/25 20:20:00,23.3, 9.2
2023/10/25 20:30:00,23.4, 9.6
2023/10/25 20:40:00,23.2, 9.3
2023/10/25 20:50:00,23.2, 9.0
2023/10/25 21:00:00,23.0, 9.1
2023/10/25 21:10:00,23.1, 8.8
2023/10/25 21:20:00,23.1, 8.9
2023/10/25 21:30:00,23.1, 8.6
2023/10/25 21:40:00,23.0, 8.4
2023/10/25 21:50:00,23.0, 8.6
2023/10/25 22:00:00,23.4, 8.5
2023/10/25 22:10:00,23.4, 8.8
2023/10/25 22:20:00,23.4, 9.0
2023/10/25 22:30:00,23.6, 8.9
2023/10/25 22:40:00,23.6, 9.0
2023/10/25 22:50:00,23.5, 9.1
2023/10/25 23:00:00,23.4, 8.7
2023/10/25 23:10:00,23.3, 8.6
2023/10/25 23:20:00,23.3, 8.5
2023/10/25 23:30:00,23.3, 8.5
2023/10/25 23:40:00,23.2, 8.3
2023/10/25 23:50:00,23.6, 8.0
